[[{"header":{"parameterUnit":"m.s-1","parameterCategory":1,"la1":30.2991,"la2":30.254,"lo1":-89.0895,"lo2":-89.0444,"dy":0.0017,"dx":0.0017,"nx":28,"ny":28,"refTime":"2023-07-18T21:00:00:Z","depth":0,"parameterNumber":2,"parameterNumberName":"U-component_of_WINDS"},"data":[0,0,0,0,0,0,0,0,0,0,0,0,0,0,0,0,0,0,0,0,0,0,0,0,0,0,0,0,0,0,0,0,0,0,0,0,0,0,0,0,0,0,0,0,0,0,0,0,0,0,0,0,0,0,0,0,0,0,1.2776,1.2776,0,1.2802,1.2802,1.2803,1.2825,1.2826,1.2826,1.2826,1.2855,1.2855,1.2856,0,0,0,0,0,0,0,0,0,0,0,0,0,1.2747,1.2748,1.2776,1.2776,1.2777,1.2802,1.2802,1.2803,1.2825,1.2826,1.2826,1.2826,1.2855,1.2855,1.2856,0,0,0,0,0,0,0,0,0,0,0,0,0,1.2765,1.2748,1.2776,1.2791,1.2793,1.2802,1.2802,1.2803,1.2825,1.2826,1.2826,1.2826,1.2854,1.2855,1.2856,1.2853,0,0,1.2858,1.2859,0,0,0,0,0,0,0,0,1.2764,1.2766,1.2788,1.279,1.2792,1.2811,1.2803,1.282,1.2825,1.2813,1.2826,1.2827,1.284,1.2842,1.2846,1.2855,1.2856,1.2858,1.2859,1.2859,1.286,0,0,0,0,0,0,0,1.2763,1.2765,1.2786,1.2789,1.2791,1.2797,1.28,1.2806,1.2824,1.2814,1.2816,1.2818,1.2841,1.2845,1.2847,1.2856,1.2858,1.2859,1.286,1.286,1.2863,1.2863,0,0,0,0,0,0,1.2759,1.2764,1.2786,1.2787,1.2779,1.2797,1.28,1.2804,1.2824,1.2827,1.2818,1.2819,1.2844,1.2846,1.2848,1.2845,1.2859,1.286,1.286,1.2864,1.2863,1.2863,0,0,0,0,0,0,1.2758,1.2761,1.2785,1.2776,1.278,1.2797,1.2801,1.2805,1.2809,1.2827,1.2831,1.2819,1.2844,1.2847,1.2852,1.2847,1.286,1.2861,1.2864,1.2864,1.2863,1.2841,0,0,0,0,0,0,1.2757,1.276,1.2759,1.2776,1.278,1.2787,1.2801,1.2805,1.281,1.2812,1.2829,1.2832,1.2845,1.285,1.2852,1.2848,1.2862,1.2865,1.2864,1.2863,1.2842,1.2839,1.2837,0,0,0,0,0,1.2756,1.2752,1.2759,1.2761,1.2779,1.2787,1.2789,1.2803,1.281,1.2809,1.282,1.2832,1.2847,1.285,1.2853,1.2849,1.2865,1.2864,1.2863,1.2843,1.284,1.2837,0,0,0,0,0,0,1.2735,1.2755,1.2762,1.2763,1.2773,1.279,1.2789,1.2799,1.2808,1.2809,1.2827,1.2831,1.2833,1.2842,1.2845,1.2847,1.2858,1.2857,1.2841,1.2838,1.2836,1.2834,1.2862,0,0,0,0,0,1.273,1.2735,1.2752,1.2751,1.2756,1.2772,1.2776,1.2786,1.2797,1.2801,1.2813,1.2824,1.2831,1.2835,1.2843,1.2844,1.2847,1.2842,1.284,1.2838,1.2837,1.2837,1.2835,1.286,1.286,1.286,0,0,1.2721,1.2732,1.2734,1.2747,1.2756,1.276,1.2775,1.2779,1.2783,1.2802,1.2806,1.2816,1.2829,1.2831,1.2833,1.2838,1.2831,1.2837,1.2835,1.2835,1.2836,1.2833,1.2831,1.2859,1.286,1.286,0,0,1.2705,1.2715,1.2715,1.2723,1.2736,1.2747,1.2747,1.2762,1.2769,1.2774,1.2788,1.2793,1.2805,1.2814,1.282,1.2808,1.2818,1.281,1.2797,1.2797,1.2795,1.2794,1.2788,1.2786,1.2809,1.2809,1.2809,0,1.2692,1.2699,1.2714,1.2717,1.2722,1.2739,1.2739,1.2747,1.2762,1.2765,1.2772,1.2787,1.2797,1.2801,1.2798,1.2803,1.2803,1.2808,1.2794,1.2793,1.2791,1.2787,1.2785,1.2808,1.2808,1.2808,1.2808,0,1.2681,1.2686,1.2684,1.2697,1.2703,1.2704,1.272,1.2724,1.2734,1.2744,1.2748,1.2761,1.2771,1.2773,1.2783,1.2779,1.2782,1.2791,1.2802,1.2788,1.2783,1.2782,1.2806,1.2807,1.2807,1.2807,0,0,1.2652,1.2674,1.2673,1.2679,1.2694,1.2698,1.2701,1.271,1.2713,1.2723,1.2725,1.2735,1.2743,1.275,1.2761,1.2761,1.275,1.2771,1.2771,1.2765,1.2745,1.2737,1.2734,1.2757,1.2757,1.2757,1.2743,0,1.2638,1.2643,1.2657,1.2658,1.2662,1.2679,1.2681,1.2691,1.27,1.2706,1.2717,1.2723,1.2734,1.2738,1.2739,1.2751,1.2746,1.2753,1.276,1.276,1.2754,1.2732,1.2724,1.2711,1.2742,1.2742,1.2742,0,1.2623,1.2631,1.2632,1.2647,1.2649,1.265,1.266,1.2665,1.2677,1.2684,1.2691,1.2703,1.2707,1.2718,1.2723,1.2727,1.2731,1.2738,1.2738,1.2738,1.2749,1.2731,1.2707,1.2704,1.2739,1.2739,1.274,0,1.26,1.2611,1.2613,1.2618,1.2636,1.2636,1.2644,1.2656,1.2661,1.267,1.2673,1.2682,1.2687,1.2694,1.2709,1.2715,1.2712,1.2724,1.2718,1.2717,1.2716,1.2715,1.269,1.272,1.272,1.272,1.272,0,1.2583,1.2582,1.2603,1.2604,1.2604,1.262,1.262,1.263,1.264,1.2643,1.2659,1.2662,1.2682,1.2687,1.2698,1.27,1.2703,1.2709,1.2712,1.2707,1.2706,1.2708,1.2709,1.272,1.272,1.272,1.272,0,1.2556,1.2571,1.2573,1.259,1.2594,1.2594,1.2608,1.261,1.2621,1.2624,1.2626,1.2644,1.265,1.2666,1.2677,1.2685,1.2684,1.269,1.2679,1.2681,1.2673,1.2673,1.2648,1.2645,1.2678,1.2678,1.2678,0,1.2544,1.2544,1.256,1.2563,1.257,1.2575,1.2579,1.2596,1.26,1.2614,1.2614,1.2622,1.2629,1.2639,1.2653,1.2661,1.2667,1.2658,1.2668,1.2663,1.2665,1.2664,1.2664,1.2655,1.2654,1.2654,1.2654,0,1.2519,1.2526,1.2532,1.254,1.2545,1.2553,1.2561,1.2563,1.2582,1.2586,1.2593,1.2598,1.2609,1.2617,1.2627,1.2636,1.2647,1.265,1.2649,1.2643,1.2637,1.2639,1.2672,1.265,1.2651,1.2651,1.2651,1.2651,1.2498,1.2499,1.251,1.2516,1.2525,1.2532,1.2534,1.2545,1.2551,1.2561,1.2571,1.2576,1.2588,1.2604,1.2611,1.2616,1.2622,1.2621,1.262,1.2619,1.2616,1.2637,1.2618,1.2618,1.2619,1.2619,1.2619,0,1.2473,1.2482,1.2487,1.2498,1.2503,1.2514,1.2524,1.2527,1.2532,1.2542,1.2548,1.2556,1.2563,1.2578,1.2586,1.2587,1.2593,1.2589,1.2588,1.259,1.2611,1.2611,1.2584,1.2584,1.2584,1.2584,1.2584,1.2584,1.2461,1.2462,1.247,1.2476,1.2484,1.2489,1.2494,1.2501,1.2509,1.2517,1.2523,1.2532,1.2544,1.2553,1.2561,1.2565,1.2567,1.2561,1.2566,1.2585,1.2589,1.2592,1.2591,1.2561,1.2561,1.2545,1.2545,1.2544]},{"header":{"parameterUnit":"m.s-1","parameterCategory":1,"la1":30.2991,"la2":30.254,"lo1":-89.0895,"lo2":-89.0444,"dy":0.0017,"dx":0.0017,"nx":28,"ny":28,"refTime":"2023-07-18T21:00:00:Z","depth":0,"parameterNumber":3,"parameterNumberName":"V-component_of_WINDS"},"data":[0,0,0,0,0,0,0,0,0,0,0,0,0,0,0,0,0,0,0,0,0,0,0,0,0,0,0,0,0,0,0,0,0,0,0,0,0,0,0,0,0,0,0,0,0,0,0,0,0,0,0,0,0,0,0,0,0,0,3.2914,3.2914,0,3.2898,3.2898,3.2898,3.2903,3.2904,3.2904,3.2904,3.2885,3.2884,3.2883,0,0,0,0,0,0,0,0,0,0,0,0,0,3.2945,3.2945,3.2914,3.2914,3.2913,3.2898,3.2898,3.2897,3.2903,3.2904,3.2904,3.2904,3.2885,3.2884,3.2883,0,0,0,0,0,0,0,0,0,0,0,0,0,3.2931,3.2945,3.2914,3.2914,3.2914,3.2898,3.2898,3.2897,3.2903,3.2904,3.2904,3.2905,3.2885,3.2884,3.2883,3.2864,0,0,3.2879,3.2878,0,0,0,0,0,0,0,0,3.2932,3.293,3.2915,3.2914,3.2914,3.2903,3.2902,3.2886,3.2903,3.2907,3.2904,3.2905,3.289,3.2889,3.2884,3.2863,3.2862,3.2879,3.2878,3.2877,3.2877,0,0,0,0,0,0,0,3.2933,3.293,3.2907,3.2914,3.2914,3.2914,3.2913,3.2899,3.2896,3.2907,3.2907,3.2905,3.289,3.2885,3.2884,3.2862,3.2879,3.2878,3.2877,3.2876,3.2822,3.2821,0,0,0,0,0,0,3.2934,3.2931,3.2908,3.2907,3.2925,3.2913,3.2912,3.2906,3.2896,3.2895,3.2905,3.2906,3.2887,3.2885,3.2883,3.2859,3.2877,3.2876,3.2875,3.2823,3.2822,3.2821,0,0,0,0,0,0,3.2935,3.2932,3.2909,3.2919,3.2916,3.2912,3.2906,3.2906,3.2901,3.2895,3.2894,3.2901,3.2888,3.2885,3.2868,3.2858,3.2876,3.2874,3.2824,3.2823,3.2822,3.2812,0,0,0,0,0,0,3.2936,3.2932,3.2926,3.2919,3.2916,3.2895,3.2905,3.2905,3.2899,3.29,3.2891,3.289,3.2888,3.287,3.2867,3.2857,3.2873,3.2824,3.2823,3.2822,3.2813,3.281,3.2808,0,0,0,0,0,3.2937,3.2923,3.2926,3.2923,3.2908,3.2895,3.2893,3.2892,3.2898,3.2891,3.2887,3.289,3.286,3.2869,3.2865,3.2854,3.2825,3.2823,3.2822,3.2814,3.2811,3.2808,0,0,0,0,0,0,3.2929,3.2923,3.2925,3.2909,3.2903,3.2896,3.2887,3.2889,3.288,3.2881,3.288,3.2878,3.286,3.2856,3.2865,3.2835,3.2843,3.2841,3.2838,3.2835,3.2833,3.2834,3.2872,0,0,0,0,0,3.2925,3.2916,3.2911,3.2897,3.2894,3.2891,3.2885,3.2886,3.2878,3.2875,3.287,3.2861,3.285,3.2842,3.2832,3.2812,3.2809,3.2803,3.2801,3.2799,3.2797,3.2784,3.2781,3.2816,3.2816,3.2816,0,0,3.2918,3.2913,3.2907,3.2896,3.2891,3.288,3.2889,3.2877,3.2869,3.2873,3.2857,3.2853,3.2843,3.2824,3.2816,3.282,3.2786,3.2797,3.2796,3.2794,3.2782,3.2779,3.2776,3.2815,3.2815,3.2816,0,0,3.2898,3.2895,3.2882,3.2877,3.2869,3.2867,3.2864,3.2857,3.2854,3.2839,3.2841,3.283,3.2811,3.2804,3.2798,3.2774,3.2776,3.2771,3.2759,3.2746,3.2743,3.2741,3.2731,3.2728,3.2769,3.2769,3.2769,0,3.2889,3.2875,3.2876,3.2864,3.2858,3.2862,3.2848,3.2843,3.2831,3.2826,3.2832,3.2807,3.2801,3.278,3.2774,3.2769,3.2764,3.2771,3.2744,3.2742,3.2739,3.273,3.2726,3.2768,3.2768,3.2768,3.2768,0,3.2863,3.2853,3.2844,3.2834,3.2827,3.2814,3.2812,3.2804,3.2805,3.2802,3.2784,3.2777,3.2764,3.2759,3.276,3.2738,3.274,3.2745,3.2753,3.2735,3.2726,3.2722,3.2767,3.2767,3.2767,3.2767,0,0,3.2838,3.2829,3.2825,3.282,3.2811,3.2803,3.2789,3.2778,3.2771,3.2762,3.275,3.2734,3.2737,3.273,3.2729,3.2719,3.2698,3.2724,3.2724,3.2718,3.2672,3.2668,3.2664,3.27,3.2699,3.2699,3.2672,0,3.2817,3.2796,3.2796,3.2775,3.2764,3.2767,3.2756,3.2748,3.2745,3.2734,3.2729,3.2717,3.2724,3.2719,3.2709,3.2703,3.2689,3.2705,3.2686,3.2686,3.2688,3.2659,3.2655,3.2631,3.2669,3.2668,3.2668,0,3.279,3.2782,3.276,3.2752,3.2747,3.2737,3.2726,3.2716,3.2707,3.2705,3.2696,3.2697,3.2681,3.2691,3.2669,3.268,3.2672,3.2668,3.2667,3.2664,3.2675,3.2654,3.2623,3.2619,3.2662,3.2663,3.2663,0,3.2772,3.2756,3.274,3.2736,3.2726,3.2719,3.2714,3.2706,3.2698,3.2688,3.2682,3.267,3.2663,3.2652,3.2648,3.2656,3.2625,3.2635,3.2622,3.2622,3.2614,3.2615,3.258,3.2611,3.2611,3.2611,3.2612,0,3.2748,3.2735,3.2732,3.2723,3.2707,3.2706,3.269,3.2685,3.2678,3.2666,3.2668,3.2656,3.2653,3.264,3.2637,3.2618,3.2615,3.2611,3.261,3.261,3.2611,3.2605,3.2606,3.261,3.2611,3.2611,3.2611,0,3.2726,3.2724,3.2707,3.2699,3.2697,3.2685,3.2678,3.2668,3.2664,3.2649,3.2646,3.264,3.2625,3.262,3.2602,3.26,3.2577,3.2578,3.258,3.258,3.2566,3.2567,3.2525,3.2519,3.2556,3.2555,3.2555,0,3.271,3.27,3.2691,3.2684,3.2679,3.2668,3.266,3.2658,3.265,3.2638,3.2629,3.2615,3.2603,3.2579,3.2571,3.2557,3.2557,3.2543,3.2555,3.2555,3.2555,3.2555,3.2553,3.2541,3.254,3.254,3.254,0,3.2682,3.2682,3.2671,3.266,3.2652,3.2643,3.2634,3.2627,3.2624,3.2614,3.26,3.2591,3.2572,3.2557,3.2542,3.2536,3.2536,3.2536,3.2532,3.2532,3.2533,3.2531,3.2573,3.2537,3.2538,3.2538,3.2538,3.2538,3.2662,3.2652,3.2644,3.2632,3.2626,3.2617,3.2607,3.2602,3.2591,3.2576,3.2575,3.2559,3.2548,3.2528,3.2521,3.2507,3.251,3.2505,3.2503,3.2501,3.25,3.2536,3.2504,3.2504,3.2504,3.2504,3.2504,0,3.2633,3.2628,3.2617,3.2605,3.2595,3.2598,3.2588,3.2579,3.2565,3.2556,3.2544,3.2526,3.2511,3.2503,3.2487,3.2477,3.2477,3.2473,3.2473,3.2471,3.2498,3.2503,3.2473,3.2473,3.2473,3.2473,3.2473,3.2473,3.2616,3.26,3.2598,3.2578,3.2572,3.2557,3.2551,3.2542,3.2535,3.2515,3.2503,3.2498,3.2488,3.2472,3.2457,3.2455,3.2448,3.2444,3.2442,3.2467,3.247,3.2473,3.2477,3.2443,3.2443,3.2416,3.2416,3.2416]}]]